This demonstration page uses our WeatherBlox Daily Observations layout. Learn more.

Left ArrowRight Arrow

Hourly Observations for June 16, 2021

Temp ( °F °C ) Dew Point ( °F °C ) Humidity (%) Winds ( mph kmh ) Pressure ( in mb ) Visibility ( mi km ) Precip ( " mm )
12:15 am 00:15 Clear 63 17 57 14 83 83 N N/A 30.04 1017 10 16 N/A
12:35 am 00:35 Clear 63 17 57 14 83 83 N N/A 30.05 1018 10 16 N/A
12:55 am 00:55 Clear 63 17 57 14 83 83 N 6 9 30.05 1018 10 16 N/A
1:15 am 01:15 Clear 63 17 57 14 83 83 N N/A 30.05 1018 10 16 N/A
1:35 am 01:35 Clear 63 17 57 14 83 83 N N/A 30.05 1018 10 16 N/A
1:55 am 01:55 Clear 63 17 57 14 83 83 N N/A 30.05 1018 10 16 N/A
2:15 am 02:15 Clear 61 16 57 14 88 88 N N/A 30.05 1018 10 16 N/A
2:35 am 02:35 Clear 59 15 57 14 94 94 N N/A 30.05 1018 10 16 N/A
2:55 am 02:55 Clear 59 15 57 14 94 94 N N/A 30.05 1018 10 16 N/A
3:15 am 03:15 Clear 57 14 57 14 100 100 N N/A 30.06 1018 10 16 N/A
3:35 am 03:35 Clear 57 14 55 13 94 94 N N/A 30.06 1018 10 16 N/A
3:55 am 03:55 Clear 57 14 55 13 94 94 N N/A 30.06 1018 10 16 N/A
4:15 am 04:15 Clear 55 13 55 13 100 100 N N/A 30.07 1018 10 16 N/A
4:35 am 04:35 Clear 57 14 55 13 94 94 N N/A 30.06 1018 10 16 N/A
4:55 am 04:55 Clear 55 13 55 13 100 100 N N/A 30.07 1018 10 16 N/A
5:15 am 05:15 Clear 54 12 54 12 100 100 N N/A 30.07 1018 10 16 N/A
5:35 am 05:35 Clear 54 12 54 12 100 100 N N/A 30.07 1018 10 16 N/A
5:55 am 05:55 Clear 55 13 55 13 100 100 N N/A 30.09 1019 10 16 N/A
6:15 am 06:15 Sunny 54 12 54 12 100 100 N N/A 30.09 1019 10 16 N/A
6:35 am 06:35 Sunny 54 12 54 12 100 100 N N/A 30.09 1019 10 16 N/A
6:55 am 06:55 Sunny 54 12 54 12 100 100 N N/A 30.09 1019 10 16 N/A
7:15 am 07:15 Sunny 55 13 55 13 100 100 N N/A 30.10 1019 10 16 N/A
7:35 am 07:35 Partly Cloudy 57 14 57 14 100 100 N N/A 30.10 1019 10 16 N/A
7:55 am 07:55 Partly Cloudy 59 15 59 15 100 100 N N/A 30.09 1019 10 16 N/A
8:15 am 08:15 Partly Cloudy 61 16 59 15 94 94 N N/A 30.09 1019 10 16 N/A
8:35 am 08:35 Sunny 64 18 59 15 83 83 N N/A 30.09 1019 10 16 N/A
8:55 am 08:55 Sunny 66 19 59 15 78 78 N N/A 30.09 1019 10 16 N/A
9:15 am 09:15 Sunny 68 20 57 14 69 69 N N/A 30.10 1019 10 16 N/A
9:35 am 09:35 Sunny 68 20 55 13 64 64 ESE 3 6 30.10 1019 10 16 N/A
9:55 am 09:55 Sunny 70 21 54 12 57 57 N N/A 30.10 1019 10 16 N/A
10:15 am 10:15 Sunny 70 21 55 13 60 60 N N/A 30.10 1019 10 16 N/A
10:35 am 10:35 Sunny 72 22 55 13 57 57 N N/A 30.09 1019 10 16 N/A
10:55 am 10:55 Sunny 72 22 55 13 57 57 N N/A 30.09 1019 10 16 N/A
11:15 am 11:15 Sunny 73 23 57 14 57 57 N N/A 30.09 1019 10 16 N/A
11:35 am 11:35 Sunny 73 23 57 14 57 57 N N/A 30.08 1019 10 16 N/A
11:55 am 11:55 Sunny 73 23 57 14 57 57 N N/A 30.08 1019 10 16 N/A
12:15 pm 12:15 Sunny 73 23 55 13 53 53 N N/A 30.08 1019 10 16 N/A
12:35 pm 12:35 Sunny 75 24 57 14 54 54 N N/A 30.08 1018 10 16 N/A
12:55 pm 12:55 Sunny 75 24 57 14 54 54 N N/A 30.08 1018 10 16 N/A
1:15 pm 13:15 Sunny 77 25 57 14 51 51 N N/A 30.06 1018 10 16 N/A
1:35 pm 13:35 Sunny 77 25 59 15 54 54 N N/A 30.06 1018 10 16 N/A
1:55 pm 13:55 Partly Cloudy 77 25 57 14 51 51 N N/A 30.05 1018 10 16 N/A
2:15 pm 14:15 Partly Cloudy 77 25 57 14 51 51 N N/A 30.05 1018 10 16 N/A
2:35 pm 14:35 Partly Cloudy 77 25 57 14 51 51 N N/A 30.04 1017 10 16 N/A
2:55 pm 14:55 Partly Cloudy 77 25 57 14 51 51 N N/A 30.04 1017 10 16 N/A
3:15 pm 15:15 Sunny 79 26 59 15 51 51 N N/A 30.03 1017 10 16 N/A
3:35 pm 15:35 Partly Cloudy 79 26 57 14 48 48 N N/A 30.03 1017 10 16 N/A
3:55 pm 15:55 Sunny 77 25 57 14 51 51 N N/A 30.03 1017 10 16 N/A
4:15 pm 16:15 Sunny 79 26 57 14 48 48 N N/A 30.02 1017 10 16 N/A
4:35 pm 16:35 Mostly Cloudy 77 25 57 14 51 51 N N/A 30.01 1016 10 16 N/A
4:55 pm 16:55 Mostly Cloudy 81 27 57 14 45 45 N N/A 30.02 1016 10 16 N/A
5:15 pm 17:15 Mostly Cloudy 79 26 57 14 48 48 N N/A 30.01 1016 10 16 N/A
5:35 pm 17:35 Partly Cloudy 77 25 57 14 51 51 N N/A 30.00 1016 10 16 N/A
5:55 pm 17:55 Mostly Cloudy 77 25 57 14 51 51 N N/A 30.00 1016 10 16 N/A
6:15 pm 18:15 Mostly Cloudy 79 26 57 14 48 48 N N/A 30.00 1016 10 16 N/A
6:35 pm 18:35 Mostly Cloudy 77 25 57 14 51 51 N N/A 30.00 1016 10 16 N/A
6:55 pm 18:55 Mostly Cloudy 79 26 57 14 48 48 N N/A 29.99 1016 10 16 N/A
7:16 pm 19:16 Partly Cloudy 79 26 57 14 48 48 N N/A 29.99 1016 10 16 N/A
7:35 pm 19:35 Partly Cloudy 77 25 59 15 54 54 N N/A 29.98 1015 10 16 N/A
7:55 pm 19:55 Partly Cloudy 77 25 57 14 51 51 N N/A 29.99 1016 10 16 N/A
8:15 pm 20:15 Partly Cloudy 75 24 59 15 57 57 N N/A 30.00 1016 10 16 N/A
8:35 pm 20:35 Mostly Cloudy 75 24 59 15 57 57 N N/A 30.00 1016 10 16 N/A
8:55 pm 20:55 Cloudy 73 23 61 16 65 65 N N/A 30.00 1016 10 16 N/A
9:15 pm 21:15 Mostly Cloudy 72 22 61 16 69 69 N N/A 30.00 1016 10 16 N/A
9:35 pm 21:35 Mostly Cloudy 72 22 63 17 73 73 N N/A 30.00 1016 10 16 N/A
9:55 pm 21:55 Mostly Cloudy 70 21 63 17 78 78 N N/A 30.01 1016 10 16 N/A
10:15 pm 22:15 Mostly Cloudy 68 20 63 17 83 83 N N/A 30.02 1017 10 16 N/A
10:35 pm 22:35 Partly Cloudy 68 20 61 16 78 78 N N/A 30.02 1017 10 16 N/A
10:55 pm 22:55 Clear 66 19 63 17 88 88 N N/A 30.03 1017 10 16 N/A
11:15 pm 23:15 Clear 64 18 63 17 94 94 N N/A 30.03 1017 10 16 N/A
11:35 pm 23:35 Clear 68 20 59 15 73 73 N N/A 30.03 1017 10 16 N/A
11:55 pm 23:55 Clear 66 19 61 16 83 83 N N/A 30.02 1017 10 16 N/A

Powered by AerisWeather